Погода в Черемшанке

Россия / Красноярский край     53°52′49″N   93°44′07″E
темп.,
°C
ветер,
м/с
пор.,
м/с
влажн.,
%
обл.,
%
осадки,
мм/ч
давл.,
гПа
погр.,
м
22 мая, вс
вс2201:00+11всв11775 0.0 101310
04:00+9в21804 0.0 101312
07:00+14в12645 0.0 1011170
10:00+22в23405 0.0 1009797
13:00+26в1128100 0.0 10051698
16:00+26ссз1126100 0.0 10041801
19:00+21сз1152100 0.0 100411
22:00+16ссв2162100 0.0 100618
23 мая, пн
пн2301:00+15св1167100 0.0 100711
04:00+13вюв1174100 0.0 100910
07:00+16ссв1170100 0.0 101167
10:00+13св1297100 5.1 1015137
13:00+14с119457 8.9 1017206
16:00+21з2257100 0.0 10171203
19:00+16зюз3585100 0.6 1019202
22:00+13зсз2498100 1.9 1022209
24 мая, вт
вт2401:00+11зюз2498100 2.8 1024336
04:00+10ююз1298100 1.4 1025150
07:00+10юв1198100 4.5 1025132
10:00+11в019490 0.4 1024269
13:00+18в136643 0.4 1021929
16:00+22св12510 0.0 10171203
19:00+21с11660 0.0 101616
22:00+14всв118216 0.0 101611
25 мая, ср
ср2501:00+12всв11895 0.0 101711
04:00+11всв2189100 0.0 101616
07:00+15в1271100 0.0 1016130
10:00+22вюв1344100 0.0 1014553
13:00+24з1140100 0.0 1012640
16:00+26ссз1137100 0.0 1011889
19:00+23зсз116067 0.0 101011
22:00+16с1176100 0.0 101111
26 мая, чт
чт2601:00+13св1187100 0.0 101211
04:00+12ссв119394 0.0 101210
07:00+16с0176100 0.0 1013190
10:00+21зсз12540 0.0 1012999
13:00+25сз35336 0.0 10112698
16:00+24ссз563446 0.0 10112002
19:00+19с375787 0.0 1012298
22:00+13с11775 0.0 101316